Location: Caltech
(34.1382°N, 118.1253°W)
Time: 14:52:18
(UTC-07:00)

OPAL - Visible Passes

Search period start: 18 August 2017 00:00
Search period end: 28 August 2017 00:00
Orbit: 743 x 796 km, 100.2° (Epoch: 17 August)

Date Brightness Start Highest point End Pass type
(mag) Time Alt. Az. Time Alt. Az. Time Alt. Az.
20 Aug 10.3 20:08:53 10° SW 20:12:08 17° W 20:15:22 10° WNW visible
23 Aug 10.2 20:00:41 10° SSW 20:04:31 21° W 20:08:20 10° NW visible
25 Aug 10.7 20:31:26 10° WSW 20:32:39 11° W 20:33:53 10° W visible
26 Aug 9.8 19:52:40 10° SSW 19:56:55 27° W 20:01:08 10° NW visible
